1487250001.21,37167,14.5,74444.0,9.57,-30.27,-30.45,0,*76
1487250002.43,37168,14.5,74448.5,9.57,-30.33,-30.45,0,*7C
1487250003.66,37169,14.5,74448.5,9.57,-29.95,-29.95,0,*7C
1487250004.88,37170,14.5,74448.5,9.57,-29.95,-29.95,0,*74
1487250006.11,37171,14.5,74448.5,9.57,-30.45,-30.67,0,*75
1487250007.32,37172,14.56,74454.0,9.55,-30.67,-30.67,0,*74
1487250008.51,37173,14.5,74448.3,9.55,-30.11,-30.27,0,*70
1487250009.74,37174,14.5,74454.3,9.55,-29.95,-30.17,0,*70
1487250010.97,37175,14.5,74448.3,9.57,-29.61,-29.83,0,*7D
1487250012.23,37176,14.5,74448.8,9.57,-29.57,-29.73,0,*74
1487250013.45,37177,14.5,74454.3,9.55,-29.83,-30.01,0,*73
1487250014.68,37178,14.5,74450.8,9.55,-30.27,-30.51,0,*7F
1487250015.91,37179,14.5,74450.5,9.57,-29.57,-29.61,0,*78
1487250017.11,37180,14.5,74450.3,9.55,-29.83,-29.83,0,*79
1487250018.35,37181,14.5,74452.5,9.55,-30.51,-30.51,0,*78
1487250019.56,37182,14.5,74448.5,9.55,-29.95,-30.27,0,*7A
1487250020.78,37183,14.5,74450.8,9.55,-30.27,-30.51,0,*7B
1487250021.99,37184,14.5,74450.5,9.55,-30.67,-30.83,0,*77
1487250023.24,37185,14.5,74450.8,9.53,-31.45,-31.73,0,*7F
1487250024.49,37186,14.5,74452.3,9.53,-31.05,-31.23,0,*7D
1487250025.76,37187,14.5,74450.8,9.53,-30.05,-30.17,0,*7B
1487250026.99,37188,14.56,74452.0,9.53,-30.23,-30.33,0,*76
1487250028.26,37189,14.5,74450.8,9.49,-30.89,-30.95,0,*70
1487250029.54,37190,14.5,74448.3,9.49,-30.89,-30.89,0,*75
1487250030.82,37191,14.5,74448.8,9.49,-30.73,-30.73,0,*74
1487250032.08,37192,14.56,74450.5,9.49,-31.11,-31.17,0,*71
1487250033.35,37193,14.5,74448.5,9.49,-30.73,-30.55,0,*72
1487250034.55,37194,14.5,74450.8,9.47,-30.23,-30.23,0,*7F
1487250035.78,37195,14.56,74452.0,9.47,-30.55,-30.55,0,*7E
1487250037.07,37196,14.5,74448.0,9.45,-30.61,-30.61,0,*7F
1487250038.32,37197,14.5,74448.0,9.47,-31.61,-31.61,0,*7C
1487250039.57,37198,14.5,74450.3,9.49,-32.19,-32.01,0,*74
1487250040.84,37199,14.5,74450.0,9.45,-31.51,-31.39,0,*7E
1487250042.12,37200,14.56,74452.8,9.45,-30.95,-30.95,0,*73
1487250043.32,37201,14.5,74450.8,9.43,-29.79,-29.79,0,*74
1487250044.57,37202,14.5,74450.8,9.45,-29.73,-29.61,0,*72
1487250045.85,37203,14.5,74450.5,9.45,-29.39,-29.39,0,*70
1487250047.05,37204,14.56,74448.3,9.47,-29.67,-29.57,0,*76
1487250048.3,37205,14.56,74448.0,9.47,-29.01,-29.01,0,*74
1487250049.49,37206,14.56,74450.5,9.47,-29.07,-29.07,0,*77
1487250050.74,37207,14.56,74452.0,9.47,-29.17,-29.17,0,*76
1487250052.01,37208,14.5,74446.5,9.49,-29.39,-29.39,0,*77
1487250053.3,37209,14.5,74450.0,9.53,-29.51,-29.51,0,*7D
1487250054.53,37210,14.5,74450.3,9.53,-29.45,-29.45,0,*75
1487250055.8,37211,14.5,74444.8,9.49,-29.17,-29.17,0,*7F
1487250057.07,37212,14.5,74446.5,9.53,-28.63,-28.47,0,*71
1487250058.3,37213,14.56,74450.5,9.53,-28.85,-28.97,0,*75
1487250059.54,37214,14.5,74446.0,9.53,-28.79,-28.69,0,*70
1487250060.79,37215,14.56,74450.5,9.55,-28.09,-28.09,0,*76
1487250062.06,37216,14.5,74448.0,9.57,-28.43,-28.43,0,*77
1487250063.28,37217,14.56,74448.0,9.57,-28.97,-28.97,0,*76
1487250064.51,37218,14.5,74448.3,9.59,-28.85,-28.75,0,*78
1487250065.72,37219,14.56,74448.5,9.59,-28.37,-28.31,0,*70
1487250066.93,37220,14.5,74448.0,9.59,-28.69,-28.75,0,*71
1487250068.16,37221,14.5,74448.0,9.61,-28.97,-28.85,0,*75
1487250069.39,37222,14.5,74446.3,9.59,-28.53,-28.43,0,*7F
1487250070.64,37223,14.5,74446.3,9.61,-28.15,-28.09,0,*79
1487250071.89,37224,14.5,74446.5,9.63,-29.17,-29.35,0,*71
1487250073.16,37225,14.56,74450.8,9.65,-28.59,-28.75,0,*78
1487250074.39,37226,14.5,74446.8,9.63,-29.45,-29.51,0,*76
1487250075.62,37227,14.5,74446.5,9.63,-29.35,-29.61,0,*73
1487250076.87,37228,14.5,74448.0,9.65,-30.89,-31.05,0,*7E
1487250078.08,37229,14.5,74448.5,9.63,-31.29,-31.45,0,*76
1487250079.32,37230,14.5,74450.0,9.63,-31.39,-31.57,0,*7C
1487250080.58,37231,14.56,74448.0,9.61,-31.45,-31.61,0,*71
1487250081.8,37232,14.5,74448.0,9.59,-30.83,-30.95,0,*78
1487250083.0,37233,14.5,74444.0,9.59,-31.17,-31.29,0,*73
1487250084.26,37234,14.5,74448.0,9.59,-30.77,-30.77,0,*79
1487250085.49,37235,14.5,74448.5,9.59,-30.11,-30.39,0,*72
1487250086.71,37236,14.5,74450.5,9.57,-29.61,-29.95,0,*7E
1487250087.99,37237,14.5,74450.0,9.57,-30.01,-30.17,0,*73
1487250089.22,37238,14.56,74448.8,9.57,-30.45,-30.67,0,*7B
1487250090.44,37239,14.5,74448.5,9.55,-31.01,-31.23,0,*78
1487250091.7,37240,14.56,74448.5,9.57,-30.67,-30.89,0,*74
1487250092.92,37241,14.56,74450.3,9.55,-30.33,-30.61,0,*70
1487250094.14,37242,14.5,74450.8,9.55,-30.33,-30.51,0,*70
1487250095.37,37243,14.5,74448.3,9.55,-30.17,-30.27,0,*76
1487250096.59,37244,14.56,74448.8,9.55,-29.73,-29.83,0,*7D
1487250097.82,37245,14.56,74448.0,9.55,-29.95,-30.17,0,*71
1487250099.1,37246,14.56,74450.8,9.57,-31.23,-31.39,0,*79
1487250100.32,37247,14.5,74448.3,9.55,-31.05,-31.23,0,*75
1487250101.52,37248,14.56,74450.0,9.55,-31.05,-31.17,0,*7D
1487250102.75,37249,14.56,74448.5,9.53,-30.67,-30.83,0,*73
1487250104.02,37250,14.5,74446.3,9.53,-30.51,-30.55,0,*75
1487250105.24,37251,14.56,74452.8,9.53,-30.23,-30.23,0,*70
1487250106.52,37252,14.56,74448.8,9.53,-30.73,-30.89,0,*76
1487250107.78,37253,14.56,74450.3,9.53,-31.23,-31.29,0,*78
1487250109.0,37254,14.56,74448.8,9.49,-31.79,-32.01,0,*72
1487250110.25,37255,14.5,74448.8,9.53,-30.83,-30.95,0,*73
1487250111.53,37256,14.56,74450.3,9.49,-30.95,-30.95,0,*7C
1487250112.81,37257,14.56,74450.8,9.49,-31.85,-31.95,0,*7C
1487250114.03,37258,14.56,74448.3,9.47,-31.85,-32.01,0,*73
1487250115.25,37259,14.56,74448.5,9.47,-31.51,-31.79,0,*77
1487250116.53,37260,14.56,74448.0,9.45,-31.57,-31.51,0,*73
1487250117.73,37261,14.56,74448.0,9.43,-31.05,-31.05,0,*72
1487250118.96,37262,14.56,74450.8,9.41,-31.29,-31.29,0,*73
1487250120.21,37263,14.5,74446.3,9.43,-31.73,-31.73,0,*70
1487250121.47,37264,14.56,74450.8,9.43,-31.91,-31.91,0,*77
1487250122.74,37265,14.5,74446.8,9.45,-31.39,-31.39,0,*70
1487250124.02,37266,14.56,74448.0,9.39,-32.19,-32.19,0,*78
1487250125.24,37267,14.56,74450.0,9.39,-31.29,-31.29,0,*79
1487250126.49,37268,14.5,74442.8,9.39,-29.89,-29.83,0,*7C
1487250127.73,37269,14.56,74448.8,9.39,-30.05,-30.11,0,*72
1487250129.0,37270,14.5,74444.8,9.41,-30.55,-30.51,0,*74
1487250130.28,37271,14.56,74446.3,9.39,-30.73,-30.77,0,*7A
1487250131.5,37272,14.56,74450.8,9.41,-29.83,-29.79,0,*77
1487250132.71,37273,14.56,74444.0,9.43,-29.61,-29.61,0,*71
1487250133.95,37274,14.56,74446.8,9.43,-29.39,-29.57,0,*7E
1487250135.15,37275,14.56,74444.8,9.43,-29.23,-29.23,0,*77
1487250136.37,37276,14.56,74446.3,9.45,-29.07,-29.07,0,*72
1487250137.62,37277,14.56,74444.8,9.45,-28.75,-28.69,0,*7E
1487250138.84,37278,14.56,74448.5,9.47,-28.85,-28.75,0,*71
1487250140.03,37279,14.56,74444.0,9.47,-29.23,-29.23,0,*7F
1487250141.32,37280,14.56,74444.5,9.53,-29.35,-29.51,0,*7E
1487250142.57,37281,14.56,74442.3,9.47,-29.89,-29.89,0,*78
1487250143.84,37282,14.56,74450.0,9.53,-29.13,-29.01,0,*7D
1487250145.07,37283,14.56,74444.5,9.53,-28.85,-28.85,0,*7F
1487250146.34,37284,14.5,74440.8,9.53,-30.01,-30.05,0,*7C
1487250147.57,37285,14.56,74444.0,9.53,-30.33,-30.33,0,*79
1487250148.79,37286,14.56,74446.5,9.53,-29.67,-29.61,0,*7C
1487250150.02,37287,14.56,74444.8,9.49,-30.11,-30.23,0,*71
1487250151.21,37288,14.5,74444.3,9.55,-29.61,-29.79,0,*7B
1487250152.46,37289,14.56,74448.0,9.53,-30.33,-30.39,0,*7F
1487250153.68,37290,14.56,74444.0,9.53,-30.33,-30.33,0,*7D
1487250154.95,37291,14.5,74444.8,9.53,-30.01,-30.05,0,*78
1487250156.16,37292,14.56,74448.5,9.55,-29.83,-29.83,0,*79
1487250157.41,37293,14.56,74446.5,9.53,-30.73,-30.83,0,*71
1487250158.68,37294,14.56,74446.0,9.53,-30.51,-30.51,0,*79
1487250159.96,37295,14.5,74442.8,9.53,-30.17,-30.17,0,*78
1487250161.17,37296,14.56,74446.0,9.55,-29.95,-29.83,0,*7A
1487250162.4,37297,14.56,74444.0,9.53,-29.67,-29.67,0,*7A
1487250163.62,37298,14.56,74444.3,9.53,-29.79,-29.67,0,*7A
1487250164.82,37299,14.56,74446.5,9.55,-29.95,-29.83,0,*75
1487250166.05,37300,14.56,74446.5,9.53,-28.85,-28.97,0,*76
1487250167.3,37301,14.56,74446.3,9.55,-28.75,-28.63,0,*75
1487250168.53,37302,14.56,74444.5,9.55,-29.39,-29.57,0,*79
1487250169.73,37303,14.56,74442.5,9.55,-29.45,-29.57,0,*73
1487250170.95,37304,14.56,74440.3,9.59,-29.17,-29.07,0,*7A
1487250172.15,37305,14.56,74446.8,9.55,-29.07,-28.97,0,*7E
1487250173.42,37306,14.56,74442.8,9.57,-29.39,-29.29,0,*76
1487250174.64,37307,14.56,74442.3,9.57,-29.07,-28.97,0,*7E
1487250175.9,37308,14.56,74440.5,9.59,-29.39,-29.35,0,*7B
1487250177.15,37309,14.56,74442.0,9.59,-29.01,-29.01,0,*76
1487250178.4,37310,14.56,74438.0,9.59,-29.17,-29.17,0,*7E
1487250179.67,37311,14.56,74440.5,9.61,-28.79,-28.79,0,*74
1487250180.9,37312,14.56,74442.5,9.63,-28.79,-28.69,0,*74
1487250182.12,37313,14.56,74440.0,9.63,-29.45,-29.29,0,*7E
1487250183.36,37314,14.56,74442.8,9.63,-29.35,-29.13,0,*77
1487250184.61,37315,14.56,74440.0,9.65,-29.13,-29.07,0,*71
1487250185.88,37316,14.56,74442.5,9.65,-28.79,-28.75,0,*7B
1487250187.14,37317,14.56,74442.5,9.65,-28.63,-28.31,0,*71
1487250188.36,37318,14.56,74438.0,9.67,-28.75,-28.69,0,*76
1487250189.56,37319,14.56,74438.3,9.67,-28.85,-28.69,0,*78
1487250190.81,37320,14.56,74440.5,9.69,-28.85,-28.43,0,*74
1487250192.04,37321,14.56,74436.5,9.67,-28.69,-28.59,0,*72
1487250193.31,37322,14.56,74440.0,9.69,-28.91,-28.75,0,*76
1487250194.54,37323,14.56,74438.0,9.69,-28.53,-28.37,0,*7F
1487250195.82,37324,14.56,74438.5,9.69,-28.91,-28.91,0,*7A
1487250197.07,37325,14.56,74440.3,9.69,-29.01,-28.85,0,*76
1487250198.32,37326,14.56,74440.3,9.71,-29.17,-29.17,0,*71
1487250199.56,37327,14.56,74440.0,9.71,-29.35,-29.29,0,*7D
1487250200.81,37328,14.56,74440.5,9.71,-30.01,-29.89,0,*77
1487250202.05,37329,14.56,74442.3,9.71,-30.61,-30.39,0,*73
1487250203.3,37330,14.56,74442.0,9.71,-30.05,-30.01,0,*72
1487250204.53,37331,14.56,74440.5,9.69,-29.57,-29.57,0,*7E
1487250205.74,37332,14.56,74440.5,9.69,-29.07,-29.07,0,*7D
1487250207.02,37333,14.56,74442.8,9.69,-29.17,-29.17,0,*7C
1487250208.29,37334,14.56,74440.3,9.69,-29.01,-29.01,0,*7B
1487250209.52,37335,14.56,74440.5,9.69,-28.85,-28.69,0,*78
1487250210.78,37336,14.56,74438.8,9.69,-28.75,-28.75,0,*79
1487250212.01,37337,14.56,74442.0,9.71,-28.69,-28.63,0,*7B
1487250213.22,37338,14.56,74442.0,9.71,-28.69,-28.79,0,*7F
1487250214.51,37339,14.56,74440.3,9.73,-29.89,-30.05,0,*71
1487250215.76,37340,14.56,74442.3,9.71,-29.35,-29.35,0,*71
1487250217.02,37341,14.56,74442.3,9.73,-29.29,-29.45,0,*78
1487250218.21,37342,14.56,74442.8,9.71,-28.97,-28.85,0,*70
1487250219.49,37343,14.56,74442.5,9.73,-29.01,-29.13,0,*73
1487250220.77,37344,14.56,74446.5,9.73,-29.17,-29.35,0,*77
1487250222.02,37345,14.56,74444.8,9.71,-30.95,-31.23,0,*78
1487250223.25,37346,14.56,74440.0,9.71,-31.79,-31.95,0,*75
1487250224.5,37347,14.56,74440.0,9.69,-31.45,-31.61,0,*79
1487250225.75,37348,14.56,74442.8,9.69,-31.91,-32.23,0,*7A
1487250227.0,37349,14.56,74440.5,9.67,-30.77,-30.95,0,*73
1487250228.28,37350,14.56,74440.8,9.65,-30.73,-30.89,0,*70
1487250229.51,37351,14.56,74442.0,9.63,-31.79,-31.95,0,*70
1487250230.73,37352,14.56,74442.5,9.63,-31.57,-31.79,0,*7D
1487250232.0,37353,14.56,74442.8,9.61,-30.73,-30.95,0,*7A
1487250233.29,37354,14.56,74442.5,9.61,-30.51,-30.77,0,*71
1487250234.52,37355,14.56,74442.3,9.59,-31.29,-31.61,0,*73
1487250235.74,37356,14.56,74440.5,9.59,-30.95,-31.29,0,*7A
1487250236.97,37357,14.56,74440.5,9.59,-31.61,-31.79,0,*74
1487250238.19,37358,14.56,74446.5,9.55,-31.73,-32.01,0,*78
1487250239.44,37359,14.56,74440.3,9.55,-32.07,-32.29,0,*73
1487250240.72,37360,14.56,74442.8,9.53,-31.61,-31.95,0,*78
1487250241.97,37361,14.56,74442.5,9.49,-31.51,-31.79,0,*73
1487250243.19,37362,14.56,74442.3,9.49,-32.13,-32.23,0,*79
1487250244.44,37363,14.56,74440.3,9.49,-30.95,-31.17,0,*70
1487250245.72,37364,14.56,74442.5,9.49,-30.77,-31.11,0,*7D
1487250246.99,37365,14.56,74444.0,9.49,-31.51,-31.85,0,*74
1487250248.25,37366,14.56,74440.8,9.45,-32.07,-32.23,0,*74
1487250249.5,37367,14.56,74446.5,9.45,-31.17,-31.39,0,*7F
1487250250.73,37368,14.56,74446.0,9.45,-30.83,-31.05,0,*73
1487250251.96,37369,14.56,74442.0,9.45,-30.27,-30.33,0,*78
1487250253.21,37370,14.56,74444.3,9.47,-30.95,-30.95,0,*77
1487250254.48,37371,14.56,74444.0,9.45,-31.39,-31.57,0,*7C
1487250255.73,37372,14.56,74442.0,9.45,-30.95,-31.17,0,*7C
1487250256.99,37373,14.56,74438.3,9.43,-31.57,-31.85,0,*7F
1487250258.21,37374,14.56,74444.0,9.41,-32.23,-32.35,0,*72
1487250259.46,37375,14.56,74442.0,9.41,-32.97,-33.21,0,*78
1487250260.75,37376,14.56,74442.0,9.41,-31.95,-31.95,0,*77
1487250262.0,37377,14.56,74444.5,9.39,-31.11,-31.17,0,*7F
1487250263.21,37378,14.56,74440.5,9.39,-31.05,-31.05,0,*76
1487250264.47,37379,14.56,74442.5,9.39,-30.55,-30.39,0,*7D
1487250265.72,37380,14.56,74440.8,9.39,-31.05,-31.11,0,*74
1487250266.96,37381,14.56,74442.3,9.39,-30.45,-30.61,0,*76
1487250268.18,37382,14.56,74442.8,9.39,-31.33,-31.33,0,*73
1487250269.43,37383,14.56,74438.3,9.37,-31.85,-31.95,0,*7D
1487250270.68,37384,14.56,74440.0,9.37,-31.11,-31.11,0,*7B
1487250271.93,37385,14.56,74444.8,9.37,-30.95,-31.11,0,*77
1487250273.13,37386,14.56,74440.8,9.37,-31.33,-31.45,0,*78
1487250274.36,37387,14.56,74442.5,9.37,-31.45,-31.51,0,*7D
1487250275.56,37388,14.56,74446.0,9.37,-31.45,-31.45,0,*77
1487250276.77,37389,14.56,74444.0,9.33,-31.17,-31.17,0,*72
1487250278.01,37390,14.56,74444.0,9.35,-31.39,-31.33,0,*76
1487250279.26,37391,14.56,74442.3,9.33,-31.85,-31.85,0,*7B
1487250280.49,37392,14.56,74440.3,9.33,-32.45,-32.39,0,*73
1487250281.73,37393,14.56,74440.5,9.33,-32.45,-32.45,0,*79
1487250282.98,37394,14.56,74436.5,9.31,-33.77,-34.07,0,*7C
1487250284.25,37395,14.56,74436.8,9.27,-34.19,-34.35,0,*74
1487250285.5,37396,14.56,74436.3,9.25,-32.45,-32.45,0,*7B
1487250286.75,37397,14.56,74436.0,9.23,-31.85,-32.01,0,*73
1487250288.01,37398,14.56,74438.3,9.23,-30.77,-30.67,0,*72
1487250289.27,37399,14.56,74428.0,9.25,-30.77,-30.73,0,*70
1487250290.49,37400,14.56,74432.5,9.23,-30.45,-30.33,0,*74
1487250291.71,37401,14.56,74432.5,9.23,-30.45,-30.33,0,*75
1487250292.97,37402,14.56,74434.0,9.23,-29.83,-29.89,0,*7D
1487250294.23,37403,14.56,74434.5,9.25,-29.89,-29.89,0,*70
1487250295.47,37404,14.56,74434.0,9.27,-30.45,-30.39,0,*7E
1487250296.72,37405,14.56,74434.5,9.27,-31.05,-30.95,0,*7C
1487250297.98,37406,14.56,74434.3,9.25,-30.77,-30.89,0,*74
1487250299.23,37407,14.56,74436.0,9.25,-31.23,-31.11,0,*75
1487250300.45,37408,14.56,74434.0,9.25,-30.45,-30.55,0,*7A
1487250301.7,37409,14.56,74430.8,9.25,-30.05,-30.05,0,*7A
1487250302.95,37410,14.56,74434.3,9.25,-29.89,-29.89,0,*72
1487250304.15,37411,14.56,74434.8,9.25,-30.23,-30.27,0,*77
1487250305.44,37412,14.56,74440.0,9.27,-31.11,-31.23,0,*73
1487250306.67,37413,14.56,74438.3,9.25,-31.11,-31.29,0,*7A
1487250307.94,37414,14.56,74434.5,9.27,-31.51,-31.61,0,*77
1487250309.17,37415,14.56,74438.3,9.25,-31.95,-32.01,0,*79
1487250310.44,37416,14.56,74434.8,9.23,-31.51,-31.39,0,*7C
1487250311.67,37417,14.56,74434.5,9.23,-31.29,-31.29,0,*73
1487250312.9,37418,14.56,74438.0,9.21,-31.39,-31.33,0,*74
1487250314.09,37419,14.56,74438.5,9.21,-30.11,-30.11,0,*7F
1487250315.3,37420,14.56,74436.8,9.21,-29.57,-29.57,0,*75
1487250316.55,37421,14.56,74440.0,9.21,-29.29,-29.13,0,*7D
1487250317.74,37422,14.56,74438.8,9.21,-29.23,-29.07,0,*71
1487250318.94,37423,14.56,74440.3,9.25,-28.97,-28.97,0,*72
1487250320.19,37424,14.56,74438.0,9.25,-29.17,-29.35,0,*75
1487250321.43,37425,14.56,74436.0,9.25,-29.51,-29.67,0,*71
1487250322.66,37426,14.56,74438.5,9.25,-29.39,-29.57,0,*7F
1487250323.86,37427,14.56,74438.8,9.25,-29.07,-29.07,0,*76
1487250325.12,37428,14.56,74438.3,9.27,-29.39,-29.67,0,*70
1487250326.37,37429,14.56,74440.0,9.27,-30.77,-31.05,0,*7E
1487250327.65,37430,14.56,74440.0,9.27,-30.73,-30.89,0,*77
1487250328.87,37431,14.56,74438.5,9.25,-30.17,-30.23,0,*76
1487250330.13,37432,14.56,74438.5,9.25,-29.89,-30.05,0,*7E
1487250331.39,37433,14.56,74440.5,9.27,-30.39,-30.55,0,*7B
1487250332.65,37434,14.56,74438.3,9.27,-29.57,-29.73,0,*70
1487250333.91,37435,14.56,74436.8,9.27,-31.23,-31.45,0,*77
1487250335.17,37436,14.56,74438.3,9.27,-31.45,-31.61,0,*72
1487250336.42,37437,14.56,74436.8,9.25,-30.95,-31.23,0,*7B
1487250337.7,37438,14.56,74438.5,9.23,-30.61,-30.77,0,*79
1487250338.93,37439,14.56,74440.0,9.25,-29.23,-29.51,0,*7C
1487250340.2,37440,14.56,74442.8,9.23,-29.13,-29.29,0,*78
1487250341.42,37441,14.56,74436.0,9.25,-29.01,-29.23,0,*76
1487250342.7,37442,14.56,74440.8,9.27,-28.79,-29.01,0,*79
1487250343.97,37443,14.56,74436.5,9.31,-28.79,-28.91,0,*77
1487250345.25,37444,14.56,74442.3,9.31,-29.29,-29.51,0,*79
1487250346.52,37445,14.56,74442.3,9.31,-28.91,-29.01,0,*7F
1487250347.79,37446,14.56,74442.5,9.31,-29.01,-29.29,0,*7E
1487250348.99,37447,14.56,74440.3,9.33,-29.95,-30.27,0,*76
1487250350.24,37448,14.56,74442.5,9.33,-31.23,-31.57,0,*7B
1487250351.49,37449,14.56,74440.0,9.27,-32.35,-32.45,0,*7B
1487250352.77,37450,14.56,74440.5,9.27,-31.95,-32.19,0,*73
1487250354.0,37451,14.56,74440.8,9.27,-31.33,-31.45,0,*74
1487250355.26,37452,14.56,74438.5,9.27,-31.45,-31.61,0,*70
1487250356.51,37453,14.56,74436.3,9.27,-31.61,-31.79,0,*7E
1487250357.79,37454,14.56,74436.3,9.23,-31.73,-31.91,0,*78
1487250359.04,37455,14.56,74436.8,9.23,-31.57,-31.67,0,*76
1487250360.29,37456,14.56,74436.0,9.23,-31.11,-31.29,0,*7D
1487250361.52,37457,14.56,74438.3,9.21,-31.85,-32.01,0,*7A
1487250362.77,37458,14.56,74432.8,9.19,-31.79,-31.91,0,*77
1487250364.03,37459,14.56,74434.3,9.19,-30.67,-30.55,0,*71
1487250365.27,37460,14.56,74434.8,9.19,-30.33,-30.39,0,*70
1487250366.55,37461,14.56,74434.8,9.19,-30.01,-30.01,0,*7B
1487250367.8,37462,14.56,74432.5,9.21,-29.29,-29.39,0,*72
1487250369.07,37463,14.56,74436.5,9.19,-29.17,-29.17,0,*79
1487250370.33,37464,14.56,74434.3,9.23,-29.13,-29.13,0,*77
1487250371.57,37465,14.56,74438.0,9.23,-29.57,-29.45,0,*75
1487250372.8,37466,14.56,74436.0,9.23,-29.57,-29.61,0,*70
1487250374.07,37467,14.56,74434.3,9.23,-29.01,-28.91,0,*7C
1487250375.27,37468,14.56,74438.5,9.25,-31.05,-31.05,0,*7D
1487250376.52,37469,14.56,74434.3,9.23,-31.57,-31.67,0,*79
1487250377.72,37470,14.56,74436.0,9.21,-32.51,-32.57,0,*76
1487250378.97,37471,14.56,74436.5,9.19,-33.67,-33.77,0,*7B
1487250380.18,37472,14.56,74436.5,9.17,-32.69,-32.69,0,*77
1487250381.46,37473,14.56,74434.8,9.15,-30.89,-30.89,0,*74
1487250382.74,37474,14.56,74438.5,9.15,-31.23,-31.39,0,*78
1487250384.02,37475,14.56,74436.8,9.15,-31.11,-31.39,0,*78
1487250385.26,37476,14.56,74436.0,9.15,-30.45,-30.39,0,*7A
1487250386.52,37477,14.56,74436.0,9.17,-29.89,-29.89,0,*72
1487250387.76,37478,14.63,74438.5,9.15,-30.39,-30.45,0,*74
1487250388.99,37479,14.56,74436.3,9.17,-30.33,-30.39,0,*76
1487250390.23,37480,14.56,74436.5,9.17,-30.39,-30.55,0,*70
1487250391.49,37481,14.56,74434.0,9.17,-30.77,-30.77,0,*7B
1487250392.72,37482,14.56,74432.5,9.15,-29.67,-29.67,0,*7A
1487250393.98,37483,14.56,74438.0,9.15,-29.51,-29.67,0,*7E
1487250395.22,37484,14.56,74436.0,9.17,-29.51,-29.57,0,*78
1487250396.47,37485,14.56,74436.3,9.17,-30.05,-30.17,0,*7C
1487250397.73,37486,14.56,74434.8,9.17,-30.73,-30.73,0,*7C
1487250398.99,37487,14.56,74438.3,9.15,-30.17,-29.83,0,*7A
1487250400.25,37488,14.56,74436.3,9.17,-29.35,-29.51,0,*70
1487250401.48,37489,14.56,74434.3,9.17,-29.67,-29.73,0,*76
1487250402.71,37490,14.56,74436.3,9.17,-30.17,-30.23,0,*7C
1487250403.95,37491,14.56,74436.8,9.19,-30.33,-30.39,0,*7E
1487250405.2,37492,14.56,74436.0,9.19,-30.89,-31.01,0,*76
1487250406.45,37493,14.63,74442.0,9.15,-30.45,-30.61,0,*7C
1487250407.7,37494,14.56,74438.3,9.15,-30.33,-30.39,0,*77
1487250408.95,37495,14.56,74436.0,9.17,-30.01,-30.17,0,*79
1487250410.18,37496,14.63,74440.3,9.17,-30.01,-30.33,0,*7C
1487250411.45,37497,14.56,74438.3,9.15,-30.39,-30.55,0,*74
1487250412.72,37498,14.56,74436.5,9.15,-30.17,-30.39,0,*7D
1487250413.98,37499,14.56,74438.5,9.17,-30.61,-30.89,0,*74
1487250415.22,37500,14.56,74436.5,9.15,-30.39,-30.45,0,*7A
1487250416.5,37501,14.56,74436.5,9.15,-29.89,-30.01,0,*78
1487250417.72,37502,14.63,74440.8,9.17,-30.33,-30.55,0,*71
1487250418.93,37503,14.56,74438.8,9.17,-31.45,-31.67,0,*70
1487250420.21,37504,14.56,74438.0,9.15,-30.77,-30.89,0,*74
1487250421.44,37505,14.56,74434.0,9.13,-30.83,-30.95,0,*75
1487250422.66,37506,14.56,74436.5,9.13,-31.33,-31.51,0,*75
1487250423.87,37507,14.63,74438.8,9.13,-32.01,-32.35,0,*77
1487250425.16,37508,14.56,74436.0,9.11,-32.79,-32.79,0,*7D
1487250426.39,37509,14.56,74434.3,9.09,-32.57,-32.79,0,*79
1487250427.64,37510,14.56,74432.5,9.09,-32.45,-32.63,0,*79
1487250428.86,37511,14.56,74438.0,9.05,-32.35,-32.51,0,*72
1487250430.14,37512,14.56,74438.8,9.01,-32.19,-32.07,0,*78
1487250431.36,37513,14.56,74436.3,9.01,-31.17,-31.33,0,*70
1487250432.61,37514,14.56,74432.5,9.01,-31.33,-31.61,0,*76
1487250433.83,37515,14.56,74436.0,8.99,-32.91,-32.97,0,*76
1487250435.08,37516,14.56,74436.0,8.97,-31.57,-31.79,0,*71
1487250436.33,37517,14.63,74438.0,8.97,-31.79,-31.95,0,*7E
1487250437.57,37518,14.56,74436.3,8.97,-31.39,-31.67,0,*78
1487250438.8,37519,14.63,74438.0,8.97,-30.45,-30.67,0,*72
1487250440.04,37520,14.63,74436.3,8.99,-30.01,-30.17,0,*71
1487250441.29,37521,14.56,74438.3,8.97,-30.45,-30.51,0,*7C
1487250442.51,37522,14.56,74436.8,8.97,-30.11,-30.27,0,*7F
1487250443.7,37523,14.63,74436.8,8.99,-29.23,-29.23,0,*75
1487250444.95,37524,14.56,74436.5,8.97,-29.39,-29.79,0,*78
1487250446.17,37525,14.63,74438.8,8.99,-30.17,-30.27,0,*70
1487250447.4,37526,14.56,74438.5,8.99,-29.39,-29.45,0,*7B
1487250448.68,37527,14.56,74434.3,9.01,-29.35,-29.35,0,*71
1487250449.89,37528,14.56,74434.8,9.03,-29.57,-29.67,0,*7F
1487250451.13,37529,14.56,74436.8,9.01,-29.73,-29.79,0,*75
1487250452.36,37530,14.63,74438.3,9.01,-29.61,-29.79,0,*7E
1487250453.61,37531,14.63,74436.3,9.01,-29.23,-29.35,0,*71
1487250454.81,37532,14.56,74436.3,9.03,-29.57,-29.61,0,*72
1487250456.0,37533,14.56,74434.3,9.03,-29.79,-30.11,0,*70
1487250457.28,37534,14.63,74436.3,9.05,-29.73,-29.89,0,*72
1487250458.54,37535,14.63,74438.3,9.05,-30.55,-30.73,0,*72
1487250459.79,37536,14.63,74436.3,9.05,-29.73,-29.67,0,*70
1487250461.03,37537,14.63,74438.8,9.05,-29.73,-29.83,0,*7B
1487250462.28,37538,14.56,74436.8,9.05,-31.39,-31.45,0,*70
1487250463.51,37539,14.63,74438.0,9.03,-32.19,-32.39,0,*7E
1487250464.72,37540,14.63,74438.0,9.03,-31.67,-31.85,0,*7E
1487250466.01,37541,14.63,74438.5,9.01,-31.85,-32.07,0,*78
1487250467.23,37542,14.63,74438.3,8.99,-31.95,-32.23,0,*7C
1487250468.45,37543,14.63,74438.3,8.99,-31.91,-32.13,0,*7A
1487250469.7,37544,14.63,74436.3,8.97,-31.95,-32.23,0,*74
1487250470.92,37545,14.63,74438.3,8.99,-32.07,-32.23,0,*73
1487250472.18,37546,14.63,74438.0,8.97,-32.75,-32.91,0,*72
1487250473.42,37547,14.63,74438.8,8.93,-33.61,-33.67,0,*7B
1487250474.64,37548,14.63,74438.8,8.93,-32.91,-33.15,0,*7F
1487250475.84,37549,14.63,74436.3,8.91,-32.23,-32.35,0,*76
1487250477.09,37550,14.63,74436.3,8.87,-32.63,-32.75,0,*79
1487250478.36,37551,14.63,74436.5,8.89,-33.09,-33.09,0,*71
1487250479.59,37552,14.63,74432.5,8.85,-34.13,-34.13,0,*7E
1487250480.84,37553,14.63,74432.5,8.85,-33.27,-33.37,0,*7E
1487250482.1,37554,14.63,74434.8,8.79,-32.85,-32.85,0,*7B
1487250483.36,37555,14.63,74436.5,8.79,-30.73,-30.61,0,*79
1487250484.58,37556,14.63,74436.8,8.81,-31.67,-31.79,0,*71
1487250485.81,37557,14.63,74436.0,8.79,-32.51,-32.75,0,*7E
1487250487.07,37558,14.56,74432.0,8.79,-33.27,-33.31,0,*70
1487250488.34,37559,14.63,74438.8,8.77,-33.89,-34.01,0,*7F
1487250489.6,37560,14.63,74440.0,8.75,-33.31,-33.37,0,*76
1487250490.84,37561,14.63,74438.8,8.73,-33.61,-33.73,0,*74
1487250492.1,37562,14.63,74436.3,8.71,-34.71,-34.95,0,*7C
1487250493.35,37563,14.56,74432.5,8.67,-35.47,-35.53,0,*75
1487250494.63,37564,14.63,74434.8,8.63,-35.83,-36.13,0,*79
1487250495.84,37565,14.63,74436.3,8.57,-35.71,-35.89,0,*72
1487250497.07,37566,14.63,74434.8,8.57,-35.35,-35.47,0,*73
1487250498.3,37567,14.56,74434.3,8.53,-35.41,-35.77,0,*76
1487250499.57,37568,14.63,74436.0,8.51,-35.35,-35.53,0,*7E
1487250500.8,37569,14.56,74432.0,8.51,-34.59,-34.59,0,*7F
1487250502.03,37570,14.63,74438.8,8.45,-33.83,-33.77,0,*79
1487250503.26,37571,14.63,74436.3,8.45,-32.75,-32.57,0,*73
1487250504.49,37572,14.63,74436.0,8.45,-32.19,-32.23,0,*79
1487250505.7,37573,14.63,74434.0,8.45,-32.39,-32.39,0,*71
1487250506.93,37574,14.63,74436.0,8.45,-31.73,-31.67,0,*73